This is the latest recevied weather packets stored in our database for station/object AA8FM-13. If no packets are shown the sender has not sent any weather packets the latest 10 day(s).
| Time | Temp. | Humidity | Pressure | Rain* | Wind** | Luminosity | Snow |
|---|---|---|---|---|---|---|---|
| 1777494088 | 16.67° C | 98% | 1003.1 hPa | 10.67 mm | - | 49 W/m² | - |
| 1777493786 | 16.67° C | 97% | 1003.1 hPa | 3.05 mm | - | 42 W/m² | - |
| 1777493484 | 16.67° C | 96% | 1003 hPa | 0 mm | - | 44 W/m² | - |
| 1777493180 | 17.22° C | 95% | 1003 hPa | 0 mm | - | 52 W/m² | - |
| 1777492877 | 17.22° C | 95% | 1003 hPa | 0 mm | - | 110 W/m² | - |
| 1777492574 | 17.22° C | 96% | 1003.3 hPa | 0 mm | - | 127 W/m² | - |
| 1777492269 | 17.22° C | 96% | 1003.4 hPa | 0 mm | - | 87 W/m² | - |
| 1777491967 | 17.22° C | 97% | 1003.5 hPa | 0 mm | - | 69 W/m² | - |
| 1777491662 | 17.22° C | 97% | 1003.6 hPa | 0 mm | - | 34 W/m² | - |
| 1777491361 | 17.22° C | 97% | 1003.7 hPa | 0 mm | - | 34 W/m² | - |
| 1777491057 | 17.22° C | 96% | 1003.8 hPa | 0 mm | - | 48 W/m² | - |
| 1777490752 | 17.22° C | 96% | 1003.7 hPa | 0 mm | - | 43 W/m² | - |
| 1777490449 | 17.78° C | 95% | 1003.8 hPa | 0 mm | - | 41 W/m² | - |
| 1777490145 | 17.78° C | 95% | 1003.7 hPa | 0 mm | - | 19 W/m² | - |
| 1777489844 | 17.78° C | 93% | 1003.9 hPa | 0 mm | - | 17 W/m² | - |
| 1777489540 | 17.78° C | 91% | 1003.9 hPa | 0 mm | - | 42 W/m² | - |
| 1777489237 | 17.78° C | 92% | 1004 hPa | 0 mm | - | 102 W/m² | - |
| 1777488934 | 17.78° C | 93% | 1003.9 hPa | 0 mm | - | 116 W/m² | - |
| 1777488631 | 17.78° C | 92% | 1003.9 hPa | 0 mm | - | 91 W/m² | - |
| 1777488329 | 17.78° C | 91% | 1004 hPa | 0 mm | - | 66 W/m² | - |
| 1777488027 | 18.33° C | 91% | 1004.3 hPa | 0 mm | - | 55 W/m² | - |
| 1777487724 | 18.33° C | 92% | 1004 hPa | 0 mm | - | 55 W/m² | - |
| 1777487422 | 18.89° C | 91% | 1004.2 hPa | 0 mm | - | 72 W/m² | - |
| 1777487119 | 18.89° C | 90% | 1004.3 hPa | 0 mm | - | 127 W/m² | - |
| 1777486815 | 18.89° C | 90% | 1004.2 hPa | 0 mm | - | 138 W/m² | - |
* Rain latest hour (hover to see other rain measurements)
** Current wind speed in m/s (hover to see current wind gust speed)